Rotterdam, Netherlands

7:18 PM CET on February 13, 2016 (GMT +0100)
Rotterdam

Weather History for EHRD - July, 2012

Change the Weather History Date:

Monday, July 2, 2012

  Actual Average Record
Temperature  
Mean Temperature 62 °F -  
Max Temperature 72 °F 69 °F 86 °F (2006)
Min Temperature 52 °F 54 °F 46 °F (2014)
Degree Days  
Heating Degree Days 3    
Growing Degree Days 12 (Base 50)    
Moisture  
Dew Point 51 °F    
Average Humidity 64    
Maximum Humidity 94    
Minimum Humidity 35    
Precipitation  
Precipitation 0.00 in - - ()
Sea Level Pressure  
Sea Level Pressure 30.07 in    
Wind  
Wind Speed 9 mph ()    
Max Wind Speed 14 mph    
Max Gust Speed -    
Visibility 7.0 miles    
Events      
Averages and records for this station are not official NWS values.
T = Trace of Precipitation, MM = Missing Value Source: Averaged Metar Reports

Daily Weather History Graph

Daily Weather History Graph

Search for Another Location

Airport or City:

Trip Planner

Search our weather history database for the weather conditions in past years. The results will help you decide how hot, cold, wet, or windy it might be!

Date:

Astronomy

Jul. 02, 2012 Rise Set
Actual Time 5:27 AM CEST 10:04 PM CEST
Civil Twilight 4:39 AM CEST 10:52 PM CEST
Nautical Twilight 3:24 AM CEST 12:06 AM CEST
Astronomical Twilight 2:18 AM CEST 1:13 AM CEST
Moon 8:48 PM CEST (7/2) 4:02 AM CEST (7/2)
Length of Visible Light 18h 12m
Length of Day
16h 36m
Waxing Gibbous, 97% of the Moon is Illuminated
Jul 2
Waxing Gibbous
Jul 3
Full
Jul 11
Last Quarter
Jul 19
New
Jul 26
First Quarter

Hourly Weather History & Observations

Time (CEST) Temp. Dew Point Humidity Pressure Visibility Wind Dir Wind Speed Gust Speed Precip Events Conditions
12:25 AM 57.2 °F 48.2 °F 72% 30.09 in 6.2 mi SW 11.5 mph - N/A   Unknown
12:55 AM 57.2 °F 48.2 °F 72% 30.06 in 6.2 mi West 13.8 mph - N/A   Unknown
1:25 AM 55.4 °F 50.0 °F 82% 30.06 in 6.2 mi WSW 8.1 mph - N/A   Unknown
1:55 AM 53.6 °F 50.0 °F 88% 30.06 in 6.2 mi WSW 5.8 mph - N/A   Unknown
2:25 AM 55.4 °F 51.8 °F 88% 30.06 in 6.2 mi South 8.1 mph - N/A   Partly Cloudy
2:55 AM 55.4 °F 51.8 °F 88% 30.06 in 6.2 mi South 8.1 mph - N/A   Mostly Cloudy
3:25 AM 55.4 °F 51.8 °F 88% 30.06 in 6.2 mi South 9.2 mph - N/A   Unknown
3:55 AM 53.6 °F 51.8 °F 94% 30.06 in 6.2 mi South 11.5 mph - N/A   Unknown
4:25 AM 53.6 °F 50.0 °F 88% 30.09 in 6.2 mi South 11.5 mph - N/A   Unknown
4:55 AM 53.6 °F 50.0 °F 88% 30.09 in 6.2 mi South 9.2 mph - N/A   Scattered Clouds
5:00 AM 54 °F 50 °F 82% 30.10 in 12 mi South 11.2 mph - -   Scattered Clouds
5:25 AM 53.6 °F 50.0 °F 88% 30.09 in 6.2 mi South 10.4 mph - N/A   Unknown
5:55 AM 53.6 °F 50.0 °F 88% 30.09 in 6.2 mi South 9.2 mph - N/A   Unknown
6:25 AM 53.6 °F 50.0 °F 88% 30.09 in 6.2 mi South 9.2 mph - N/A   Unknown
6:55 AM 55.4 °F 50.0 °F 82% 30.09 in 6.2 mi SSW 11.5 mph - N/A   Unknown
7:25 AM 57.2 °F 50.0 °F 77% 30.09 in 6.2 mi SSW 9.2 mph - N/A   Unknown
7:55 AM 57.2 °F 51.8 °F 82% 30.09 in 6.2 mi SW 9.2 mph - N/A   Unknown
8:00 AM 58 °F 51 °F 71% 30.12 in 16 mi SW 11.2 mph - -  
8:25 AM 60.8 °F 51.8 °F 72% 30.09 in 6.2 mi SSW 8.1 mph - N/A   Unknown
8:55 AM 60.8 °F 51.8 °F 72% 30.09 in 6.2 mi South 8.1 mph - N/A   Unknown
9:25 AM 60.8 °F 51.8 °F 72% 30.09 in 6.2 mi South 13.8 mph - N/A   Unknown
9:55 AM 62.6 °F 51.8 °F 68% 30.09 in 6.2 mi South 9.2 mph - N/A   Unknown
10:25 AM 62.6 °F 50.0 °F 63% 30.09 in 6.2 mi South 9.2 mph - N/A   Unknown
10:55 AM 62.6 °F 50.0 °F 63% 30.09 in 6.2 mi South 10.4 mph - N/A   Unknown
11:00 AM 63 °F 51 °F 55% 30.12 in 19 mi South 11.2 mph - -   Mostly Cloudy
11:25 AM 64.4 °F 50.0 °F 59% 30.09 in 6.2 mi South 10.4 mph - N/A   Unknown
11:55 AM 66.2 °F 50.0 °F 56% 30.09 in 6.2 mi South 9.2 mph - N/A   Unknown
12:25 PM 66.2 °F 50.0 °F 56% 30.09 in 6.2 mi South 11.5 mph - N/A   Unknown
12:55 PM 66.2 °F 50.0 °F 56% 30.06 in 6.2 mi SSE 11.5 mph - N/A   Unknown
1:25 PM 66.2 °F 50.0 °F 56% 30.06 in 6.2 mi South 10.4 mph - N/A   Unknown
1:55 PM 68.0 °F 50.0 °F 52% 30.06 in 6.2 mi SSE 10.4 mph - N/A   Unknown
2:00 PM 69 °F 51 °F 43% 30.08 in 22 mi South 8.9 mph - -  
2:25 PM 68.0 °F 50.0 °F 52% 30.06 in 6.2 mi South 9.2 mph - N/A   Unknown
2:55 PM 69.8 °F 50.0 °F 49% 30.06 in 6.2 mi South 10.4 mph - N/A   Unknown
3:25 PM 69.8 °F 51.8 °F 53% 30.06 in 6.2 mi South 11.5 mph - N/A   Partly Cloudy
3:55 PM 69.8 °F 50.0 °F 49% 30.06 in 6.2 mi South 9.2 mph - N/A   Partly Cloudy
4:25 PM 69.8 °F 50.0 °F 49% 30.04 in 6.2 mi South 9.2 mph - N/A   Scattered Clouds
4:55 PM 71.6 °F 50.0 °F 46% 30.04 in 6.2 mi SSW 10.4 mph - N/A   Unknown
5:00 PM 72 °F 50 °F 35% 30.05 in 17 mi South 8.9 mph - -   Scattered Clouds
5:25 PM 71.6 °F 48.2 °F 43% 30.04 in 6.2 mi SSW 11.5 mph - N/A   Unknown
5:55 PM 69.8 °F 48.2 °F 46% 30.04 in 6.2 mi SSW 6.9 mph - N/A   Unknown
6:25 PM 69.8 °F 50.0 °F 49% 30.04 in 6.2 mi SSW 9.2 mph - N/A   Unknown
6:55 PM 69.8 °F 50.0 °F 49% 30.04 in 6.2 mi South 8.1 mph - N/A   Unknown
7:25 PM 69.8 °F 50.0 °F 49% 30.04 in 6.2 mi SSE 8.1 mph - N/A   Unknown
7:55 PM 69.8 °F 50.0 °F 49% 30.04 in 6.2 mi SSE 8.1 mph - N/A   Unknown
8:00 PM 69 °F 49 °F 38% 30.04 in 25 mi SSE 6.7 mph - -   Mostly Cloudy
8:25 PM 69.8 °F 50.0 °F 49% 30.04 in 6.2 mi South 8.1 mph - N/A   Unknown
8:55 PM 69.8 °F 50.0 °F 49% 30.04 in 6.2 mi SSE 5.8 mph - N/A   Unknown
9:25 PM 68.0 °F 50.0 °F 52% 30.04 in 6.2 mi SSE 5.8 mph - N/A   Unknown
9:55 PM 68.0 °F 50.0 °F 52% 30.04 in 6.2 mi ESE 5.8 mph - N/A   Unknown
10:25 PM 66.2 °F 51.8 °F 60% 30.04 in 6.2 mi East 5.8 mph - N/A   Unknown
10:55 PM 66.2 °F 53.6 °F 64% 30.04 in 6.2 mi ESE 4.6 mph - N/A   Unknown
11:00 PM 65 °F 53 °F 56% 30.05 in 28 mi ESE 4.5 mph - -   Overcast
11:25 PM 64.4 °F 53.6 °F 68% 30.04 in 6.2 mi ESE 3.5 mph - N/A   Unknown
11:55 PM 62.6 °F 55.4 °F 77% 30.04 in 6.2 mi West 3.5 mph - N/A   Unknown